VTD703 UWSK-UWSK

Flight info

Callsign VTD703
Flight time 0h 5m
Altitude 1200
Route RA/A012
Aircraft DA40/L-SDF/C

Departure

Time 2026-04-25 13:38
Airport Krasny Kut Airport (UWSK)

Arrival

Time 2026-04-25 13:44
Airport Krasny Kut Airport (UWSK)
Time Latitude Longitude Altitude Speed Heading
2026-04-25 13:20 50.95588 46.94802 165 ft 0 kts 167°
2026-04-25 13:30 50.95584 46.94802 163 ft 2 kts 191°
2026-04-25 13:30 50.95581 46.94795 163 ft 3 kts 269°
2026-04-25 13:31 50.95591 46.94683 164 ft 5 kts 307°
2026-04-25 13:31 50.95618 46.94648 164 ft 3 kts 343°
2026-04-25 13:31 50.95629 46.94663 164 ft 5 kts 78°
2026-04-25 13:31 50.95637 46.94806 165 ft 20 kts 86°
2026-04-25 13:32 50.95665 46.95065 166 ft 26 kts 81°
2026-04-25 13:32 50.95697 46.95308 163 ft 18 kts 54°
2026-04-25 13:32 50.95748 46.95409 163 ft 9 kts 48°
2026-04-25 13:32 50.95787 46.95434 164 ft 4 kts 10°
2026-04-25 13:33 50.95831 46.95444 164 ft 9 kts
2026-04-25 13:33 50.95872 46.95370 166 ft 15 kts 272°
2026-04-25 13:33 50.95891 46.95186 166 ft 17 kts 295°
2026-04-25 13:33 50.95908 46.95131 166 ft 16 kts 295°
2026-04-25 13:34 50.95960 46.94940 168 ft 11 kts 294°
2026-04-25 13:34 50.95998 46.94830 169 ft 11 kts 301°
2026-04-25 13:34 50.96037 46.94739 170 ft 13 kts 297°
2026-04-25 13:34 50.96078 46.94685 170 ft 5 kts
2026-04-25 13:35 50.96144 46.94698 172 ft 9 kts 17°
2026-04-25 13:35 50.96213 46.94736 174 ft 11 kts 25°
2026-04-25 13:35 50.96307 46.94814 173 ft 20 kts 30°
2026-04-25 13:35 50.96434 46.94929 174 ft 14 kts 37°
2026-04-25 13:36 50.96449 46.94932 174 ft 0 kts 308°
2026-04-25 13:36 50.96455 46.94904 173 ft 0 kts 268°
2026-04-25 13:36 50.96455 46.94899 173 ft 1 kts 249°
2026-04-25 13:36 50.96451 46.94893 173 ft 0 kts 195°
2026-04-25 13:37 50.96307 46.94773 173 ft 47 kts 196°
2026-04-25 13:37 50.96049 46.94619 208 ft 65 kts 213°
2026-04-25 13:38 50.95609 46.94303 361 ft 72 kts 215°
2026-04-25 13:38 50.95139 46.93985 544 ft 76 kts 211°
2026-04-25 13:38 50.94598 46.93756 720 ft 86 kts 207°
2026-04-25 13:38 50.94015 46.93496 903 ft 92 kts 207°
2026-04-25 13:39 50.93486 46.93006 1039 ft 87 kts 245°
2026-04-25 13:39 50.93481 46.92160 1109 ft 81 kts 294°
2026-04-25 13:39 50.93758 46.91351 1113 ft 83 kts 295°
2026-04-25 13:39 50.94045 46.90521 1089 ft 87 kts 295°
2026-04-25 13:40 50.94329 46.89734 1193 ft 79 kts 294°
2026-04-25 13:40 50.94855 46.89330 1195 ft 98 kts 351°
2026-04-25 13:40 50.95521 46.89843 1188 ft 112 kts 23°
2026-04-25 13:40 50.96218 46.90443 1154 ft 115 kts 20°
2026-04-25 13:41 50.96917 46.91078 1131 ft 115 kts 22°
2026-04-25 13:41 50.97589 46.91758 1072 ft 115 kts 25°
2026-04-25 13:41 50.98207 46.92402 1107 ft 102 kts 20°
2026-04-25 13:41 50.98803 46.92948 1150 ft 95 kts 16°
2026-04-25 13:42 50.99284 46.93689 1159 ft 105 kts 60°
2026-04-25 13:42 50.99264 46.94849 1135 ft 108 kts 121°
2026-04-25 13:42 50.98952 46.95911 1039 ft 107 kts 115°
2026-04-25 13:42 50.98576 46.96867 898 ft 97 kts 149°
2026-04-25 13:43 50.98013 46.96970 807 ft 75 kts 223°
2026-04-25 13:43 50.97719 46.96344 700 ft 73 kts 249°
2026-04-25 13:43 50.97372 46.95719 573 ft 82 kts 227°
2026-04-25 13:43 50.96838 46.95281 353 ft 87 kts 219°
2026-04-25 13:44 50.96333 46.94844 185 ft 76 kts 216°
2026-04-25 13:44 50.95987 46.94548 169 ft 39 kts 222°
2026-04-25 13:44 50.95845 46.94398 164 ft 15 kts 190°
2026-04-25 13:44 50.95746 46.94341 161 ft 16 kts 210°
2026-04-25 13:45 50.95650 46.94283 161 ft 9 kts 184°
2026-04-25 13:45 50.95632 46.94328 160 ft 6 kts 84°
2026-04-25 13:45 50.95635 46.94337 160 ft 0 kts 57°
2026-04-25 13:45 50.95662 46.94391 160 ft 13 kts 30°
2026-04-25 13:46 50.95772 46.94481 164 ft 19 kts 26°
2026-04-25 13:46 50.95913 46.94607 167 ft 25 kts 32°
2026-04-25 13:46 50.96077 46.94744 170 ft 28 kts 26°
2026-04-25 13:46 50.96242 46.94873 171 ft 24 kts 30°
2026-04-25 13:47 50.96388 46.94989 173 ft 13 kts 35°
2026-04-25 13:47 50.96419 46.94982 174 ft 4 kts 297°
2026-04-25 13:47 50.96421 46.94977 174 ft 0 kts 296°
2026-04-25 14:03 50.96438 46.94923 174 ft 3 kts 252°
2026-04-25 14:03 50.96435 46.94918 174 ft 0 kts 207°
2026-04-25 14:03 50.96299 46.94794 173 ft 44 kts 205°
2026-04-25 14:03 50.95927 46.94541 213 ft 65 kts 212°
2026-04-25 14:04 50.95497 46.94277 325 ft 68 kts 217°
2026-04-25 14:04 50.95053 46.93955 433 ft 74 kts 214°
2026-04-25 14:04 50.94587 46.93594 623 ft 77 kts 216°
2026-04-25 14:04 50.94082 46.93178 786 ft 84 kts 216°
2026-04-25 14:05 50.93715 46.92582 1023 ft 72 kts 265°
2026-04-25 14:05 50.93889 46.91799 1162 ft 80 kts 297°
2026-04-25 14:05 50.94165 46.90991 1174 ft 86 kts 293°
2026-04-25 14:05 50.94426 46.90131 1171 ft 85 kts 295°
2026-04-25 14:06 50.94764 46.89393 1249 ft 88 kts 323°
2026-04-25 14:06 50.95431 46.89464 1243 ft 113 kts 20°
2026-04-25 14:06 50.96129 46.90041 1256 ft 113 kts 17°
2026-04-25 14:06 50.96839 46.90596 1293 ft 114 kts 17°
2026-04-25 14:07 50.97545 46.91169 1239 ft 113 kts 17°
2026-04-25 14:07 50.98219 46.91738 1174 ft 109 kts 18°
2026-04-25 14:07 50.98867 46.92297 1140 ft 103 kts 17°
2026-04-25 14:07 50.99500 46.92827 1105 ft 104 kts 15°
2026-04-25 14:08 51.00038 46.93576 1134 ft 108 kts 58°
2026-04-25 14:08 50.99973 46.94724 1156 ft 108 kts 123°
2026-04-25 14:08 50.99574 46.95728 1030 ft 106 kts 127°
2026-04-25 14:08 50.99134 46.96611 921 ft 97 kts 155°
2026-04-25 14:09 50.98536 46.96692 794 ft 87 kts 212°
2026-04-25 14:09 50.98007 46.96265 662 ft 85 kts 220°
2026-04-25 14:09 50.97496 46.95807 499 ft 83 kts 220°
2026-04-25 14:09 50.97325 46.95663 436 ft 82 kts 218°
2026-04-25 14:10 50.96517 46.94985 193 ft 74 kts 216°
2026-04-25 14:10 50.96132 46.94672 176 ft 63 kts 223°
2026-04-25 14:10 50.95698 46.94379 332 ft 74 kts 207°
2026-04-25 14:10 50.95214 46.94106 541 ft 73 kts 212°
2026-04-25 14:11 50.94750 46.93767 702 ft 78 kts 218°
2026-04-25 14:11 50.94232 46.93404 895 ft 83 kts 212°
2026-04-25 14:11 50.93683 46.93025 1075 ft 85 kts 226°
2026-04-25 14:11 50.93533 46.92249 1163 ft 79 kts 290°
2026-04-25 14:12 50.93828 46.91430 1095 ft 90 kts 298°
2026-04-25 14:12 50.94141 46.90601 1132 ft 83 kts 298°
2026-04-25 14:12 50.94414 46.89815 1152 ft 81 kts 295°
2026-04-25 14:12 50.94820 46.89193 1159 ft 90 kts 340°
2026-04-25 14:13 50.95468 46.89515 1121 ft 106 kts 19°
2026-04-25 14:13 50.96100 46.90049 1143 ft 101 kts 16°
2026-04-25 14:13 50.96728 46.90527 1171 ft 101 kts 15°
2026-04-25 14:13 50.97362 46.91029 1197 ft 104 kts 16°
2026-04-25 14:14 50.98002 46.91567 1178 ft 105 kts 18°
2026-04-25 14:14 50.98635 46.92155 1123 ft 106 kts 19°
2026-04-25 14:14 50.99276 46.92718 1124 ft 105 kts 18°
2026-04-25 14:14 50.99896 46.93228 1173 ft 98 kts 19°
2026-04-25 14:15 51.00228 46.94219 1167 ft 111 kts 86°
2026-04-25 14:15 51.00188 46.94625 1174 ft 110 kts 109°
2026-04-25 14:15 50.99500 46.96363 980 ft 110 kts 128°
2026-04-25 14:15 50.98942 46.96982 865 ft 91 kts 186°
2026-04-25 14:16 50.98436 46.96627 742 ft 77 kts 230°
2026-04-25 14:16 50.97944 46.96196 614 ft 84 kts 213°
2026-04-25 14:16 50.97449 46.95771 439 ft 76 kts 225°
2026-04-25 14:16 50.97002 46.95379 326 ft 73 kts 215°
2026-04-25 14:17 50.96560 46.95016 202 ft 69 kts 214°
2026-04-25 14:17 50.96198 46.94726 172 ft 42 kts 219°
2026-04-25 14:17 50.96048 46.94580 171 ft 19 kts 208°
2026-04-25 14:17 50.95915 46.94478 165 ft 21 kts 204°
2026-04-25 14:18 50.95771 46.94401 163 ft 23 kts 219°
2026-04-25 14:18 50.95652 46.94288 161 ft 9 kts 185°
2026-04-25 14:18 50.95628 46.94324 160 ft 8 kts 123°
2026-04-25 14:18 50.95599 46.94369 160 ft 8 kts 143°
2026-04-25 14:19 50.95587 46.94435 161 ft 9 kts 94°
2026-04-25 14:19 50.95567 46.94476 162 ft 0 kts 182°